Regional Weather Roundup
Issued by NWS Little Rock, AR

Home | Current Version | Previous Version | Text Only | Print | Product List | Glossary Off
Versions: 1 2 3 4 5 6 7 8 9 10 11 12 13 14 15 16 17 18 19 20 21 22 23 24 25 26 27 28 29 30 31 32 33 34 35 36 37 38 39 40 41 42 43 44 45 46 47 48 49 50

000
ASUS44 KLZK 221905
RWRLZK

WEATHER ROUNDUP FOR ARKANSAS
NATIONAL WEATHER SERVICE LITTLE ROCK AR
200 PM CDT TUE JUL 22 2014

NOTE: "FAIR" INDICATES FEW OR NO CLOUDS BELOW 12,000 FEET WITH NO
SIGNIFICANT WEATHER AND/OR OBSTRUCTIONS TO VISIBILITY.

ARZ001-003-010-029-222000-
NORTHWEST ARKANSAS

CITY           SKY/WX    TMP DP  RH WIND       PRES   REMARKS
FAYETTEVILLE   PTSUNNY   88  72  58 CALM      30.11F HX  94
FORT SMITH     MOSUNNY   90  71  53 SE5       30.08F HX  96
HARRISON       SUNNY     89  71  55 MISG      30.11F HX  95
BENTONVILLE    PTSUNNY   88  72  58 NW5       30.13F HX  94
ROGERS         CLOUDY    88  72  58 N5        30.13S HX  94
SILOAM SPGS    PTSUNNY   88  72  58 NW3       30.12S HX  94
HIGHFILL       PTSUNNY   90  74  59 W5        30.11F HX  99
SPRINGDALE     PTSUNNY   90  73  58 CALM      30.13F HX  98
$$

ARZ004-005-016-222000-
NORTH CENTRAL ARKANSAS

CITY           SKY/WX    TMP DP  RH WIND       PRES   REMARKS
BATESVILLE     SUNNY     88  68  51 SE5       30.09F HX  91
FLIPPIN        MOSUNNY   88  68  51 E5        30.10F HX  91
MTN HOME       SUNNY     87  71  58 SW5       30.09F HX  93
$$

ARZ040-041-222000-
WEST CENTRAL ARKANSAS

CITY           SKY/WX    TMP DP  RH WIND       PRES   REMARKS
MENA           MOSUNNY   88  72  58 CALM      30.12F HX  94
MOUNT IDA      MOSUNNY   85  68  56 CALM      30.10S HX  88
$$

ARZ009-017-025-026-028-222000-
NORTHEAST ARKANSAS

CITY           SKY/WX    TMP DP  RH WIND       PRES   REMARKS
CORNING        LGT RAIN  86  68  54 SW6       30.09F HX  89
JONESBORO      MOSUNNY   87  69  54 SE9       30.08F HX  91
NEWPORT        SUNNY     88  69  53 VRB3      30.10F HX  92
WALNUT RIDGE   SUNNY     86  57  37 S5        30.08F HX  85
BLYTHEVILLE    MOSUNNY   87  70  56 CALM      30.08F HX  92
$$

ARZ022-023-033-042-044-222000-
CENTRAL ARKANSAS

CITY           SKY/WX    TMP DP  RH WIND       PRES   REMARKS
LITTLE ROCK    PTSUNNY   86  65  49 E3        30.09F HX  88
N LITTLE ROCK  PTSUNNY   86  70  59 NE3       30.09F HX  91
JACKSONVILLE   PTSUNNY   82  68  61 W2        30.10S HX  85
SEARCY         SUNNY     89  70  53 VRB6      30.10F HX  94
HOT SPRINGS    PTSUNNY   85  68  56 NW3       30.10F HX  88
RUSSELLVILLE   MOSUNNY   87  70  56 VRB3      30.09F HX  92
CLINTON        FAIR      88  72  58 CALM      30.10F HX  94
$$

ARZ036-222000-
EAST ARKANSAS

CITY           SKY/WX    TMP DP  RH WIND       PRES   REMARKS
WEST MEMPHIS   SUNNY     89  71  55 W5        30.07F HX  95
$$

ARZ050-053-066-070-073-222000-
SOUTHWEST ARKANSAS

CITY           SKY/WX    TMP DP  RH WIND       PRES   REMARKS
ARKADELPHIA    FAIR      88  70  55 CALM      30.09F HX  93
CAMDEN         MOSUNNY   88  66  48 CALM      30.08F HX  90
TEXARKANA      SUNNY     88  68  51 NE6       30.08F HX  91
EL DORADO      MOSUNNY   87  67  51 VRB5      30.09F HX  90
DE QUEEN       MOSUNNY   87  70  56 SW5       30.07F HX  92
$$

ARZ056-057-069-222000-
SOUTHEAST ARKANSAS

CITY           SKY/WX    TMP DP  RH WIND       PRES   REMARKS
PINE BLUFF     SUNNY     86  67  52 E6        30.09F HX  89
STUTTGART      SUNNY     86  70  58 N3        30.11S HX  90
MONTICELLO     MOSUNNY   88  66  48 MISG      30.08F HX  90

$$





USA.gov is the U.S. government's official web portal to all federal, state and local government web resources and services.